contact:dominique.lefevre@mio.osupytheas.fr, maurice.libes@osupytheas.fr, didier.mallarino@osupytheas.fr
Project:EMSO http://www.emso-fr.org/EMSO-France
Depth: 2436.0 m
Title:EMSO Ligure Ouest : Data MII capteur CSTAR
DateTime,Latitude,Longitude,Instrument_Serial,Reference_Counts,Signal_Counts,Corrected_Signal_raw_counts,Calculated_Beam_c_inverse_meters,Internal_thermistor_counts
DateTime,Latitude,Longitude,Instrument_Serial,Reference_Counts,Signal_Counts,Corrected_Signal_raw_counts,Calculated_Beam_c_inverse_meters,Internal_thermistor_counts
2022-09-25T00:00:00,42.805,6.029,CST-1368DR,4569,5060,11787,01.125,551
2022-09-25T00:03:02,42.805,6.029,CST-1368DR,4569,5060,11787,01.125,551
2022-09-25T00:06:04,42.805,6.029,CST-1368DR,4569,5060,11787,01.125,551
2022-09-25T00:09:05,42.805,6.029,CST-1368DR,4569,5054,11773,01.130,551
2022-09-25T00:12:07,42.805,6.029,CST-1368DR,4569,5035,11730,01.145,551
2022-09-25T00:15:08,42.805,6.029,CST-1368DR,4569,5036,11731,01.144,551
2022-09-25T00:18:10,42.805,6.029,CST-1368DR,4569,5037,11735,01.143,551
2022-09-25T00:21:11,42.805,6.029,CST-1368DR,4569,5037,11735,01.143,551
2022-09-25T00:24:13,42.805,6.029,CST-1368DR,4569,5034,11728,01.145,551
2022-09-25T00:27:15,42.805,6.029,CST-1368DR,4569,5040,11740,01.141,551
2022-09-25T00:30:16,42.805,6.029,CST-1368DR,4569,5044,11750,01.138,551
2022-09-25T00:33:18,42.805,6.029,CST-1368DR,4569,5031,11720,01.148,551
2022-09-25T00:36:19,42.805,6.029,CST-1368DR,4569,5035,11730,01.145,551
2022-09-25T00:39:21,42.805,6.029,CST-1368DR,4569,5035,11728,01.145,551
2022-09-25T00:42:23,42.805,6.029,CST-1368DR,4569,5036,11733,01.144,551
2022-09-25T00:45:24,42.805,6.029,CST-1368DR,4569,5034,11727,01.146,551
2022-09-25T00:48:26,42.805,6.029,CST-1368DR,4569,5037,11735,01.143,551
2022-09-25T00:51:27,42.805,6.029,CST-1368DR,4569,5039,11738,01.142,551
2022-09-25T00:54:29,42.805,6.029,CST-1368DR,4569,5040,11741,01.141,551
2022-09-25T00:57:30,42.805,6.029,CST-1368DR,4569,5039,11740,01.141,551
2022-09-25T01:00:32,42.805,6.029,CST-1368DR,4569,5039,11739,01.142,551
2022-09-25T01:03:34,42.805,6.029,CST-1368DR,4569,5033,11726,01.146,551
2022-09-25T01:06:35,42.805,6.029,CST-1368DR,4569,5038,11736,01.143,551
2022-09-25T01:09:37,42.805,6.029,CST-1368DR,4569,5040,11741,01.141,551
2022-09-25T01:12:38,42.805,6.029,CST-1368DR,4569,5032,11723,01.147,551
2022-09-25T01:15:40,42.805,6.029,CST-1368DR,4569,5041,11743,01.140,551
2022-09-25T01:18:41,42.805,6.029,CST-1368DR,4569,5040,11740,01.141,551
2022-09-25T01:21:43,42.805,6.029,CST-1368DR,4569,5040,11740,01.141,551
2022-09-25T01:24:45,42.805,6.029,CST-1368DR,4569,5040,11741,01.141,551
2022-09-25T01:27:46,42.805,6.029,CST-1368DR,4569,5040,11740,01.141,551
2022-09-25T01:30:48,42.805,6.029,CST-1368DR,4569,5040,11742,01.140,551
2022-09-25T01:33:49,42.805,6.029,CST-1368DR,4569,5033,11724,01.147,551
2022-09-25T01:36:51,42.805,6.029,CST-1368DR,4569,5040,11742,01.140,551
2022-09-25T01:39:52,42.805,6.029,CST-1368DR,4569,5040,11741,01.141,551
2022-09-25T01:42:54,42.805,6.029,CST-1368DR,4569,5041,11744,01.140,551
2022-09-25T01:45:56,42.805,6.029,CST-1368DR,4569,5040,11742,01.140,551
2022-09-25T01:48:57,42.805,6.029,CST-1368DR,4569,5040,11742,01.140,550
2022-09-25T01:51:59,42.805,6.029,CST-1368DR,4569,5040,11742,01.140,551
2022-09-25T01:55:00,42.805,6.029,CST-1368DR,4569,5041,11742,01.140,551
2022-09-25T01:58:02,42.805,6.029,CST-1368DR,4569,5040,11740,01.141,551
2022-09-25T02:01:04,42.805,6.029,CST-1368DR,4569,5033,11725,01.146,551
2022-09-25T02:04:05,42.805,6.029,CST-1368DR,4569,5040,11740,01.141,550
2022-09-25T02:07:07,42.805,6.029,CST-1368DR,4569,5039,11738,01.142,551
2022-09-25T02:10:08,42.805,6.029,CST-1368DR,4569,5039,11738,01.142,551
2022-09-25T02:13:10,42.805,6.029,CST-1368DR,4569,5039,11739,01.142,551
2022-09-25T02:16:11,42.805,6.029,CST-1368DR,4569,5047,11756,01.136,551
2022-09-25T02:19:13,42.805,6.029,CST-1368DR,4569,5040,11741,01.141,551
2022-09-25T02:22:15,42.805,6.029,CST-1368DR,4569,5040,11742,01.140,551
2022-09-25T02:25:16,42.805,6.029,CST-1368DR,4569,5040,11740,01.141,551
2022-09-25T02:28:18,42.805,6.029,CST-1368DR,4569,5039,11738,01.142,551
2022-09-25T02:31:19,42.805,6.029,CST-1368DR,4569,5040,11741,01.141,551
2022-09-25T02:34:21,42.805,6.029,CST-1368DR,4569,5039,11738,01.142,551
2022-09-25T02:37:22,42.805,6.029,CST-1368DR,4569,5041,11744,01.140,551
2022-09-25T02:40:24,42.805,6.029,CST-1368DR,4569,5042,11745,01.139,551
2022-09-25T02:43:26,42.805,6.029,CST-1368DR,4569,5042,11747,01.139,551
2022-09-25T02:46:27,42.805,6.029,CST-1368DR,4569,5053,11772,01.130,551
2022-09-25T02:49:29,42.805,6.029,CST-1368DR,4569,5046,11756,01.136,551
2022-09-25T02:52:30,42.805,6.029,CST-1368DR,4569,5046,11756,01.136,551
2022-09-25T02:55:32,42.805,6.029,CST-1368DR,4569,5046,11755,01.136,551
2022-09-25T02:58:34,42.805,6.029,CST-1368DR,4569,5046,11755,01.136,551
2022-09-25T03:01:35,42.805,6.029,CST-1368DR,4569,5046,11756,01.136,551
2022-09-25T03:04:37,42.805,6.029,CST-1368DR,4569,5046,11755,01.136,551
2022-09-25T03:07:38,42.805,6.029,CST-1368DR,4569,5047,11758,01.135,551
2022-09-25T03:10:40,42.805,6.029,CST-1368DR,4569,5049,11761,01.134,551
2022-09-25T03:13:41,42.805,6.029,CST-1368DR,4569,5045,11754,01.136,551
2022-09-25T03:16:43,42.805,6.029,CST-1368DR,4569,5048,11759,01.135,551
2022-09-25T03:19:45,42.805,6.029,CST-1368DR,4569,5046,11756,01.136,551
2022-09-25T03:22:46,42.805,6.029,CST-1368DR,4569,5046,11755,01.136,551
2022-09-25T03:25:48,42.805,6.029,CST-1368DR,4569,5047,11756,01.136,551
2022-09-25T03:28:49,42.805,6.029,CST-1368DR,4569,5049,11762,01.134,551
2022-09-25T03:31:51,42.805,6.029,CST-1368DR,4569,5048,11760,01.134,551
2022-09-25T03:34:52,42.805,6.029,CST-1368DR,4569,5049,11762,01.134,551
2022-09-25T03:37:54,42.805,6.029,CST-1368DR,4569,5049,11762,01.134,551
2022-09-25T03:40:56,42.805,6.029,CST-1368DR,4569,5047,11758,01.135,551
2022-09-25T03:43:57,42.805,6.029,CST-1368DR,4569,5047,11758,01.135,551
2022-09-25T03:46:59,42.805,6.029,CST-1368DR,4569,5040,11742,01.140,551
2022-09-25T03:50:00,42.805,6.029,CST-1368DR,4569,5046,11754,01.136,551
2022-09-25T03:53:02,42.805,6.029,CST-1368DR,4569,5044,11751,01.137,551
2022-09-25T03:56:04,42.805,6.029,CST-1368DR,4569,5046,11755,01.136,551
2022-09-25T03:59:05,42.805,6.029,CST-1368DR,4569,5044,11751,01.137,551
2022-09-25T04:02:07,42.805,6.029,CST-1368DR,4569,5045,11752,01.137,551
2022-09-25T04:05:08,42.805,6.029,CST-1368DR,4569,5045,11752,01.137,551
2022-09-25T04:08:10,42.805,6.029,CST-1368DR,4569,5046,11755,01.136,551
2022-09-25T04:11:11,42.805,6.029,CST-1368DR,4569,5046,11755,01.136,551
2022-09-25T04:14:13,42.805,6.029,CST-1368DR,4569,5045,11754,01.136,551
2022-09-25T04:17:15,42.805,6.029,CST-1368DR,4569,5065,11799,01.121,551
2022-09-25T04:20:16,42.805,6.029,CST-1368DR,4569,5085,11847,01.105,551
2022-09-25T04:23:18,42.805,6.029,CST-1368DR,4569,5089,11854,01.103,551
2022-09-25T04:26:19,42.805,6.029,CST-1368DR,4569,5088,11853,01.103,551
2022-09-25T04:29:21,42.805,6.029,CST-1368DR,4569,5086,11849,01.104,551
2022-09-25T04:32:22,42.805,6.029,CST-1368DR,4569,5090,11857,01.102,551
2022-09-25T04:35:24,42.805,6.029,CST-1368DR,4569,5089,11856,01.102,551
2022-09-25T04:38:26,42.805,6.029,CST-1368DR,4569,5089,11856,01.102,551
2022-09-25T04:41:27,42.805,6.029,CST-1368DR,4569,5089,11856,01.102,551
2022-09-25T04:44:29,42.805,6.029,CST-1368DR,4569,5089,11854,01.103,551
2022-09-25T04:47:30,42.805,6.029,CST-1368DR,4569,5089,11854,01.103,551
2022-09-25T04:50:32,42.805,6.029,CST-1368DR,4569,5089,11856,01.102,551
2022-09-25T04:53:34,42.805,6.029,CST-1368DR,4569,5089,11856,01.102,551
2022-09-25T04:56:35,42.805,6.029,CST-1368DR,4569,5089,11855,01.102,551
2022-09-25T04:59:37,42.805,6.029,CST-1368DR,4569,5088,11852,01.103,551
2022-09-25T05:02:38,42.805,6.029,CST-1368DR,4569,5089,11856,01.102,551
2022-09-25T05:05:40,42.805,6.029,CST-1368DR,4569,5088,11853,01.103,551
2022-09-25T05:08:41,42.805,6.029,CST-1368DR,4569,5089,11854,01.103,551
2022-09-25T05:11:43,42.805,6.029,CST-1368DR,4569,5088,11853,01.103,551
2022-09-25T05:14:45,42.805,6.029,CST-1368DR,4569,5089,11854,01.103,551
2022-09-25T05:17:46,42.805,6.029,CST-1368DR,4569,5086,11848,01.105,551
2022-09-25T05:20:48,42.805,6.029,CST-1368DR,4569,5081,11836,01.109,551
2022-09-25T05:23:49,42.805,6.029,CST-1368DR,4569,5088,11854,01.103,551
2022-09-25T05:26:51,42.805,6.029,CST-1368DR,4569,5090,11858,01.101,551
2022-09-25T05:29:52,42.805,6.029,CST-1368DR,4569,5090,11858,01.101,551
2022-09-25T05:32:54,42.805,6.029,CST-1368DR,4569,5088,11854,01.103,551
2022-09-25T05:35:56,42.805,6.029,CST-1368DR,4569,5086,11849,01.104,551
2022-09-25T05:38:57,42.805,6.029,CST-1368DR,4569,5088,11853,01.103,551
2022-09-25T05:41:59,42.805,6.029,CST-1368DR,4569,5089,11855,01.102,551
2022-09-25T05:45:00,42.805,6.029,CST-1368DR,4569,5088,11853,01.103,551
2022-09-25T05:48:02,42.805,6.029,CST-1368DR,4569,5088,11853,01.103,551
2022-09-25T05:51:04,42.805,6.029,CST-1368DR,4569,5090,11857,01.102,551
2022-09-25T05:54:05,42.805,6.029,CST-1368DR,4569,5089,11854,01.103,551
2022-09-25T05:57:07,42.805,6.029,CST-1368DR,4569,5088,11852,01.103,551
2022-09-25T06:00:08,42.805,6.029,CST-1368DR,4569,5090,11857,01.102,551
2022-09-25T06:03:10,42.805,6.029,CST-1368DR,4569,5089,11855,01.102,551
2022-09-25T06:06:11,42.805,6.029,CST-1368DR,4569,5079,11832,01.110,551
2022-09-25T06:09:13,42.805,6.029,CST-1368DR,4569,5086,11849,01.104,551
2022-09-25T06:12:15,42.805,6.029,CST-1368DR,4569,5086,11849,01.104,551
2022-09-25T06:15:16,42.805,6.029,CST-1368DR,4569,5087,11850,01.104,551
2022-09-25T06:18:18,42.805,6.029,CST-1368DR,4569,5087,11850,01.104,551
2022-09-25T06:21:19,42.805,6.029,CST-1368DR,4569,5087,11851,01.104,551
2022-09-25T06:24:21,42.805,6.029,CST-1368DR,4569,5087,11851,01.104,551
2022-09-25T06:27:22,42.805,6.029,CST-1368DR,4569,5083,11841,01.107,551
2022-09-25T06:30:24,42.805,6.029,CST-1368DR,4569,5087,11851,01.104,551
2022-09-25T06:33:26,42.805,6.029,CST-1368DR,4569,5087,11851,01.104,551
2022-09-25T06:36:27,42.805,6.029,CST-1368DR,4569,5087,11851,01.104,551
2022-09-25T06:39:29,42.805,6.029,CST-1368DR,4569,5087,11851,01.104,551
2022-09-25T06:42:30,42.805,6.029,CST-1368DR,4569,5087,11851,01.104,551
2022-09-25T06:45:32,42.805,6.029,CST-1368DR,4569,5087,11851,01.104,551
2022-09-25T06:48:34,42.805,6.029,CST-1368DR,4569,5087,11850,01.104,551
2022-09-25T06:51:35,42.805,6.029,CST-1368DR,4569,5087,11850,01.104,551
2022-09-25T06:54:37,42.805,6.029,CST-1368DR,4569,5083,11841,01.107,551
2022-09-25T06:57:38,42.805,6.029,CST-1368DR,4569,5087,11850,01.104,551
2022-09-25T07:00:40,42.805,6.029,CST-1368DR,4569,5087,11850,01.104,551
2022-09-25T07:03:41,42.805,6.029,CST-1368DR,4569,5087,11851,01.104,551
2022-09-25T07:06:43,42.805,6.029,CST-1368DR,4569,5092,11861,01.100,551
2022-09-25T07:09:45,42.805,6.029,CST-1368DR,4569,5096,11872,01.096,551
2022-09-25T07:12:46,42.805,6.029,CST-1368DR,4569,5096,11871,01.097,551
2022-09-25T07:15:48,42.805,6.029,CST-1368DR,4569,5097,11873,01.096,551
2022-09-25T07:18:49,42.805,6.029,CST-1368DR,4569,5097,11875,01.095,551
2022-09-25T07:21:51,42.805,6.029,CST-1368DR,4569,5098,11876,01.095,551
2022-09-25T07:24:52,42.805,6.029,CST-1368DR,4569,5098,11875,01.095,551
2022-09-25T07:27:54,42.805,6.029,CST-1368DR,4569,5098,11877,01.095,551
2022-09-25T07:30:56,42.805,6.029,CST-1368DR,4569,5099,11878,01.094,551
2022-09-25T07:33:57,42.805,6.029,CST-1368DR,4569,5098,11877,01.095,551
2022-09-25T07:36:59,42.805,6.029,CST-1368DR,4569,5097,11874,01.096,551
2022-09-25T07:40:00,42.805,6.029,CST-1368DR,4569,5097,11874,01.096,551
2022-09-25T07:43:02,42.805,6.029,CST-1368DR,4569,5096,11872,01.096,551
2022-09-25T07:46:04,42.805,6.029,CST-1368DR,4569,5096,11872,01.096,551
2022-09-25T07:49:05,42.805,6.029,CST-1368DR,4569,5097,11874,01.096,551
2022-09-25T07:52:07,42.805,6.029,CST-1368DR,4569,5097,11874,01.096,551
2022-09-25T07:55:08,42.805,6.029,CST-1368DR,4569,5095,11870,01.097,551
2022-09-25T07:58:10,42.805,6.029,CST-1368DR,4569,5096,11872,01.096,551
2022-09-25T08:01:11,42.805,6.029,CST-1368DR,4569,5094,11867,01.098,551
2022-09-25T08:04:13,42.805,6.029,CST-1368DR,4569,5095,11869,01.097,551
2022-09-25T08:07:15,42.805,6.029,CST-1368DR,4569,5092,11861,01.100,551
2022-09-25T08:10:16,42.805,6.029,CST-1368DR,4569,5092,11861,01.100,551
2022-09-25T08:13:18,42.805,6.029,CST-1368DR,4569,5092,11862,01.100,551
2022-09-25T08:16:19,42.805,6.029,CST-1368DR,4569,5090,11858,01.101,551
2022-09-25T08:19:21,42.805,6.029,CST-1368DR,4569,5089,11856,01.102,551
2022-09-25T08:22:23,42.805,6.029,CST-1368DR,4569,5091,11860,01.100,551
2022-09-25T08:25:24,42.805,6.029,CST-1368DR,4569,5087,11851,01.104,551
2022-09-25T08:28:26,42.805,6.029,CST-1368DR,4569,5085,11845,01.106,551
2022-09-25T08:31:27,42.805,6.029,CST-1368DR,4569,5083,11841,01.107,551
2022-09-25T08:34:29,42.805,6.029,CST-1368DR,4569,5080,11835,01.109,551
2022-09-25T08:37:30,42.805,6.029,CST-1368DR,4569,5081,11836,01.109,551
2022-09-25T08:40:32,42.805,6.029,CST-1368DR,4569,5078,11829,01.111,551
2022-09-25T08:43:34,42.805,6.029,CST-1368DR,4569,5077,11826,01.112,550
2022-09-25T08:46:35,42.805,6.029,CST-1368DR,4569,5077,11827,01.112,551
2022-09-25T08:49:37,42.805,6.029,CST-1368DR,4569,5075,11822,01.113,551
2022-09-25T08:52:38,42.805,6.029,CST-1368DR,4569,5075,11823,01.113,551
2022-09-25T08:55:40,42.805,6.029,CST-1368DR,4569,5077,11826,01.112,551
2022-09-25T08:58:41,42.805,6.029,CST-1368DR,4569,5074,11821,01.114,551
2022-09-25T09:01:43,42.805,6.029,CST-1368DR,4569,5073,11818,01.115,551
2022-09-25T09:04:45,42.805,6.029,CST-1368DR,4569,5072,11816,01.115,551
2022-09-25T09:07:46,42.805,6.029,CST-1368DR,4569,5072,11815,01.116,551
2022-09-25T09:10:48,42.805,6.029,CST-1368DR,4569,5072,11815,01.116,551
2022-09-25T09:13:49,42.805,6.029,CST-1368DR,4569,5072,11816,01.115,551
2022-09-25T09:16:51,42.805,6.029,CST-1368DR,4569,5071,11814,01.116,551
2022-09-25T09:19:53,42.805,6.029,CST-1368DR,4569,5067,11804,01.119,551
2022-09-25T09:22:54,42.805,6.029,CST-1368DR,4569,5072,11816,01.115,551
2022-09-25T09:25:56,42.805,6.029,CST-1368DR,4569,5070,11810,01.117,551
2022-09-25T09:28:57,42.805,6.029,CST-1368DR,4569,5066,11802,01.120,551
2022-09-25T09:31:59,42.805,6.029,CST-1368DR,4569,5067,11805,01.119,551
2022-09-25T09:35:00,42.805,6.029,CST-1368DR,4569,5073,11818,01.115,551
2022-09-25T09:38:02,42.805,6.029,CST-1368DR,4569,5068,11807,01.118,551
2022-09-25T09:41:04,42.805,6.029,CST-1368DR,4569,5071,11814,01.116,551
2022-09-25T09:44:05,42.805,6.029,CST-1368DR,4569,5071,11812,01.117,551
2022-09-25T09:47:07,42.805,6.029,CST-1368DR,4569,5061,11790,01.124,551
2022-09-25T09:50:08,42.805,6.029,CST-1368DR,4569,5065,11798,01.121,551
2022-09-25T09:53:10,42.805,6.029,CST-1368DR,4569,5065,11800,01.121,551
2022-09-25T09:56:11,42.805,6.029,CST-1368DR,4569,5069,11808,01.118,551
2022-09-25T09:59:13,42.805,6.029,CST-1368DR,4569,5063,11794,01.123,551
2022-09-25T10:02:15,42.805,6.029,CST-1368DR,4569,5064,11798,01.121,551
2022-09-25T10:05:16,42.805,6.029,CST-1368DR,4569,5068,11806,01.119,551
2022-09-25T10:08:18,42.805,6.029,CST-1368DR,4569,5059,11785,01.126,551
2022-09-25T10:11:19,42.805,6.029,CST-1368DR,4569,5061,11790,01.124,551
2022-09-25T10:14:21,42.805,6.029,CST-1368DR,4569,5063,11795,01.122,551
2022-09-25T10:17:23,42.805,6.029,CST-1368DR,4569,5063,11794,01.123,551
2022-09-25T10:20:24,42.805,6.029,CST-1368DR,4569,5063,11795,01.122,551
2022-09-25T10:23:26,42.805,6.029,CST-1368DR,4569,5058,11782,01.127,551
2022-09-25T10:26:27,42.805,6.029,CST-1368DR,4569,5058,11784,01.126,551
2022-09-25T10:29:29,42.805,6.029,CST-1368DR,4569,5058,11783,01.127,551
2022-09-25T10:32:30,42.805,6.029,CST-1368DR,4569,5053,11772,01.130,551
2022-09-25T10:35:32,42.805,6.029,CST-1368DR,4569,5058,11783,01.127,551
2022-09-25T10:38:34,42.805,6.029,CST-1368DR,4569,5056,11777,01.129,551
2022-09-25T10:41:35,42.805,6.029,CST-1368DR,4569,5057,11781,01.127,551
2022-09-25T10:44:37,42.805,6.029,CST-1368DR,4569,5058,11782,01.127,551
2022-09-25T10:47:38,42.805,6.029,CST-1368DR,4569,5059,11785,01.126,551
2022-09-25T10:50:40,42.805,6.029,CST-1368DR,4569,5055,11775,01.129,551
2022-09-25T10:53:41,42.805,6.029,CST-1368DR,4569,5055,11775,01.129,551
2022-09-25T10:56:43,42.805,6.029,CST-1368DR,4569,5056,11777,01.129,551
2022-09-25T10:59:45,42.805,6.029,CST-1368DR,4569,5056,11777,01.129,551
2022-09-25T11:02:46,42.805,6.029,CST-1368DR,4569,5054,11775,01.129,551
2022-09-25T11:05:48,42.805,6.029,CST-1368DR,4569,5055,11775,01.129,551
2022-09-25T11:08:49,42.805,6.029,CST-1368DR,4569,5054,11773,01.130,551
2022-09-25T11:11:51,42.805,6.029,CST-1368DR,4569,5055,11775,01.129,551
2022-09-25T11:14:53,42.805,6.029,CST-1368DR,4569,5058,11783,01.127,551
2022-09-25T11:17:54,42.805,6.029,CST-1368DR,4569,5053,11770,01.131,551
2022-09-25T11:20:56,42.805,6.029,CST-1368DR,4569,5055,11776,01.129,551
2022-09-25T11:23:57,42.805,6.029,CST-1368DR,4569,5055,11777,01.129,551
2022-09-25T11:26:59,42.805,6.029,CST-1368DR,4569,5056,11779,01.128,551
2022-09-25T11:30:00,42.805,6.029,CST-1368DR,4569,5054,11773,01.130,551
2022-09-25T11:33:02,42.805,6.029,CST-1368DR,4568,5054,11777,01.129,551
2022-09-25T11:36:04,42.805,6.029,CST-1368DR,4568,5056,11780,01.128,551
2022-09-25T11:39:05,42.805,6.029,CST-1368DR,4568,5057,11782,01.127,551
2022-09-25T11:42:07,42.805,6.029,CST-1368DR,4568,5054,11777,01.129,551
2022-09-25T11:45:08,42.805,6.029,CST-1368DR,4568,5055,11778,01.128,551
2022-09-25T11:48:10,42.805,6.029,CST-1368DR,4569,5053,11772,01.130,551
2022-09-25T11:51:11,42.805,6.029,CST-1368DR,4569,5055,11775,01.129,551
2022-09-25T11:54:13,42.805,6.029,CST-1368DR,4569,5055,11776,01.129,551
2022-09-25T11:57:15,42.805,6.029,CST-1368DR,4569,5053,11772,01.130,551
2022-09-25T12:00:16,42.805,6.029,CST-1368DR,4568,5052,11772,01.130,551
2022-09-25T12:03:18,42.805,6.029,CST-1368DR,4569,5054,11773,01.130,551
2022-09-25T12:06:19,42.805,6.029,CST-1368DR,4569,5053,11771,01.131,551
2022-09-25T12:09:21,42.805,6.029,CST-1368DR,4568,5053,11775,01.129,551
2022-09-25T12:12:23,42.805,6.029,CST-1368DR,4568,5049,11764,01.133,551
2022-09-25T12:15:24,42.805,6.029,CST-1368DR,4569,5053,11770,01.131,551
2022-09-25T12:18:26,42.805,6.029,CST-1368DR,4568,5052,11772,01.130,551
2022-09-25T12:21:27,42.805,6.029,CST-1368DR,4568,5051,11770,01.131,551
2022-09-25T12:24:29,42.805,6.029,CST-1368DR,4568,5051,11770,01.131,551
2022-09-25T12:27:30,42.805,6.029,CST-1368DR,4568,5050,11766,01.132,551
2022-09-25T12:30:32,42.805,6.029,CST-1368DR,4568,5052,11772,01.130,551
2022-09-25T12:33:34,42.805,6.029,CST-1368DR,4568,5050,11766,01.132,551
2022-09-25T12:36:35,42.805,6.029,CST-1368DR,4568,5053,11773,01.130,551
2022-09-25T12:39:37,42.805,6.029,CST-1368DR,4568,5052,11772,01.130,551
2022-09-25T12:42:38,42.805,6.029,CST-1368DR,4568,5052,11772,01.130,551
2022-09-25T12:45:40,42.805,6.029,CST-1368DR,4569,5053,11770,01.131,551
2022-09-25T12:48:41,42.805,6.029,CST-1368DR,4569,5053,11771,01.131,551
2022-09-25T12:51:43,42.805,6.029,CST-1368DR,4569,5052,11769,01.131,551
2022-09-25T12:54:45,42.805,6.029,CST-1368DR,4569,5050,11763,01.133,551
2022-09-25T12:57:46,42.805,6.029,CST-1368DR,4569,5051,11766,01.132,551
2022-09-25T13:00:48,42.805,6.029,CST-1368DR,4569,5053,11772,01.130,551
2022-09-25T13:03:49,42.805,6.029,CST-1368DR,4569,5053,11770,01.131,551
2022-09-25T13:06:51,42.805,6.029,CST-1368DR,4569,5052,11769,01.131,551
2022-09-25T13:09:53,42.805,6.029,CST-1368DR,4569,5055,11775,01.129,551
2022-09-25T13:12:54,42.805,6.029,CST-1368DR,4569,5054,11774,01.130,551
2022-09-25T13:15:56,42.805,6.029,CST-1368DR,4569,5053,11772,01.130,551
2022-09-25T13:18:57,42.805,6.029,CST-1368DR,4569,5051,11766,01.132,551
2022-09-25T13:21:59,42.805,6.029,CST-1368DR,4569,5050,11765,01.133,551
2022-09-25T13:25:00,42.805,6.029,CST-1368DR,4569,5049,11761,01.134,551
2022-09-25T13:28:02,42.805,6.029,CST-1368DR,4569,5053,11770,01.131,551
2022-09-25T13:31:04,42.805,6.029,CST-1368DR,4569,5051,11767,01.132,551
2022-09-25T13:34:05,42.805,6.029,CST-1368DR,4569,5049,11763,01.133,551
2022-09-25T13:37:07,42.805,6.029,CST-1368DR,4568,5050,11766,01.132,551
2022-09-25T13:40:08,42.805,6.029,CST-1368DR,4568,5051,11770,01.131,551
2022-09-25T13:43:10,42.805,6.029,CST-1368DR,4569,5050,11765,01.133,551
2022-09-25T13:46:12,42.805,6.029,CST-1368DR,4569,5053,11772,01.130,551
2022-09-25T13:49:13,42.805,6.029,CST-1368DR,4568,5051,11769,01.131,551
2022-09-25T13:52:15,42.805,6.029,CST-1368DR,4568,5051,11768,01.132,551
2022-09-25T13:55:16,42.805,6.029,CST-1368DR,4568,5051,11770,01.131,551
2022-09-25T13:58:18,42.805,6.029,CST-1368DR,4568,5049,11765,01.133,551
2022-09-25T14:01:19,42.805,6.029,CST-1368DR,4568,5052,11771,01.131,551
2022-09-25T14:04:21,42.805,6.029,CST-1368DR,4568,5061,11792,01.123,551
2022-09-25T14:07:23,42.805,6.029,CST-1368DR,4568,5053,11773,01.130,551
2022-09-25T14:10:24,42.805,6.029,CST-1368DR,4568,5052,11771,01.131,551
2022-09-25T14:13:26,42.805,6.029,CST-1368DR,4568,5050,11766,01.132,551
2022-09-25T14:16:27,42.805,6.029,CST-1368DR,4568,5054,11776,01.129,551
2022-09-25T14:19:29,42.805,6.029,CST-1368DR,4568,5052,11771,01.131,551
2022-09-25T14:22:30,42.805,6.029,CST-1368DR,4568,5053,11773,01.130,551
2022-09-25T14:25:32,42.805,6.029,CST-1368DR,4568,5053,11774,01.130,551
2022-09-25T14:28:34,42.805,6.029,CST-1368DR,4568,5046,11758,01.135,551
2022-09-25T14:31:35,42.805,6.029,CST-1368DR,4568,5054,11775,01.129,551
2022-09-25T14:34:37,42.805,6.029,CST-1368DR,4568,5053,11775,01.129,551
2022-09-25T14:37:38,42.805,6.029,CST-1368DR,4568,5053,11773,01.130,551
2022-09-25T14:40:40,42.805,6.029,CST-1368DR,4568,5053,11773,01.130,551
2022-09-25T14:43:42,42.805,6.029,CST-1368DR,4568,5054,11777,01.129,551
2022-09-25T14:46:43,42.805,6.029,CST-1368DR,4568,5054,11776,01.129,551
2022-09-25T14:49:45,42.805,6.029,CST-1368DR,4568,5051,11768,01.132,551
2022-09-25T14:52:46,42.805,6.029,CST-1368DR,4568,5053,11775,01.129,551
2022-09-25T14:55:48,42.805,6.029,CST-1368DR,4568,5054,11776,01.129,551
2022-09-25T14:58:49,42.805,6.029,CST-1368DR,4568,5054,11776,01.129,551
2022-09-25T15:01:51,42.805,6.029,CST-1368DR,4568,5049,11765,01.133,551
2022-09-25T15:04:53,42.805,6.029,CST-1368DR,4568,5051,11770,01.131,551
2022-09-25T15:07:54,42.805,6.029,CST-1368DR,4568,5052,11772,01.130,551
2022-09-25T15:10:56,42.805,6.029,CST-1368DR,4568,5052,11772,01.130,551
2022-09-25T15:13:57,42.805,6.029,CST-1368DR,4568,5051,11768,01.132,551
2022-09-25T15:16:59,42.805,6.029,CST-1368DR,4568,5049,11765,01.133,551
2022-09-25T15:20:01,42.805,6.029,CST-1368DR,4568,5051,11768,01.132,551
2022-09-25T15:23:02,42.805,6.029,CST-1368DR,4568,5053,11773,01.130,551
2022-09-25T15:26:04,42.805,6.029,CST-1368DR,4568,5057,11782,01.127,551
2022-09-25T15:29:05,42.805,6.029,CST-1368DR,4568,5051,11770,01.131,551
2022-09-25T15:32:07,42.805,6.029,CST-1368DR,4568,5049,11765,01.133,551
2022-09-25T15:35:08,42.805,6.029,CST-1368DR,4568,5051,11770,01.131,551
2022-09-25T15:38:10,42.805,6.029,CST-1368DR,4568,5051,11769,01.131,551
2022-09-25T15:41:12,42.805,6.029,CST-1368DR,4568,5051,11769,01.131,551
2022-09-25T15:44:13,42.805,6.029,CST-1368DR,4568,5051,11769,01.131,551
2022-09-25T15:47:15,42.805,6.029,CST-1368DR,4568,5051,11768,01.132,551
2022-09-25T15:50:16,42.805,6.029,CST-1368DR,4568,5050,11767,01.132,551
2022-09-25T15:53:18,42.805,6.029,CST-1368DR,4568,5051,11770,01.131,551
2022-09-25T15:56:19,42.805,6.029,CST-1368DR,4568,5052,11772,01.130,551
2022-09-25T15:59:21,42.805,6.029,CST-1368DR,4568,5050,11767,01.132,551
2022-09-25T16:02:23,42.805,6.029,CST-1368DR,4568,5050,11766,01.132,551
2022-09-25T16:05:24,42.805,6.029,CST-1368DR,4568,5044,11753,01.137,551
2022-09-25T16:08:26,42.805,6.029,CST-1368DR,4568,5050,11766,01.132,551
2022-09-25T16:11:27,42.805,6.029,CST-1368DR,4568,5051,11769,01.131,551
2022-09-25T16:14:29,42.805,6.029,CST-1368DR,4568,5050,11767,01.132,551
2022-09-25T16:17:30,42.805,6.029,CST-1368DR,4568,5050,11768,01.132,551
2022-09-25T16:20:32,42.805,6.029,CST-1368DR,4568,5050,11766,01.132,551
2022-09-25T16:23:34,42.805,6.029,CST-1368DR,4568,5050,11767,01.132,551
2022-09-25T16:26:35,42.805,6.029,CST-1368DR,4568,5049,11764,01.133,551
2022-09-25T16:29:37,42.805,6.029,CST-1368DR,4568,5050,11767,01.132,551
2022-09-25T16:32:38,42.805,6.029,CST-1368DR,4568,5051,11770,01.131,551
2022-09-25T16:35:40,42.805,6.029,CST-1368DR,4568,5051,11769,01.131,551